Time,TemperatureF,DewpointF,PressureIn,WindDirection,WindDirectionDegrees,WindSpeedMPH,WindSpeedGustMPH,Humidity,HourlyPrecipIn,Conditions,Clouds,dailyrainin,SolarRadiationWatts/m^2,SoftwareType,DateUTC
2016-08-27 00:07:00,69.1,62.0,30.06,NNW,342,0.0,3.0,77,0.00,,,0.00,0,weatherlink.com 1.10,2016-08-27 04:07:00,
2016-08-27 00:23:00,68.9,61.0,30.07,NNW,346,0.0,3.0,77,0.00,,,0.00,0,weatherlink.com 1.10,2016-08-27 04:23:00,
2016-08-27 00:39:00,68.3,61.0,30.07,NNW,346,0.0,2.0,78,0.00,,,0.00,0,weatherlink.com 1.10,2016-08-27 04:39:00,
2016-08-27 00:54:00,67.6,61.0,30.07,NNW,332,2.0,5.0,79,0.00,,,0.00,0,weatherlink.com 1.10,2016-08-27 04:54:00,
2016-08-27 01:10:00,67.4,61.0,30.07,NNW,331,0.0,3.0,79,0.00,,,0.00,0,weatherlink.com 1.10,2016-08-27 05:10:00,
2016-08-27 01:25:00,67.2,61.0,30.07,NNW,331,0.0,1.0,79,0.00,,,0.00,0,weatherlink.com 1.10,2016-08-27 05:25:00,
2016-08-27 01:40:00,66.8,60.0,30.07,NNW,331,0.0,0.0,79,0.00,,,0.00,0,weatherlink.com 1.10,2016-08-27 05:40:00,
2016-08-27 01:56:00,66.2,60.0,30.07,NNW,331,0.0,0.0,80,0.00,,,0.00,0,weatherlink.com 1.10,2016-08-27 05:56:00,
2016-08-27 02:12:00,65.2,60.0,30.08,NNW,332,0.0,2.0,82,0.00,,,0.00,0,weatherlink.com 1.10,2016-08-27 06:12:00,
2016-08-27 02:26:00,64.6,59.0,30.08,NNW,331,0.0,3.0,83,0.00,,,0.00,0,weatherlink.com 1.10,2016-08-27 06:26:00,
2016-08-27 02:42:00,64.6,60.0,30.08,NNW,336,1.0,5.0,84,0.00,,,0.00,0,weatherlink.com 1.10,2016-08-27 06:42:00,
2016-08-27 02:58:00,65.2,60.0,30.08,North,5,2.0,5.0,84,0.00,,,0.00,0,weatherlink.com 1.10,2016-08-27 06:58:00,
2016-08-27 03:13:00,65.4,60.0,30.08,NW,317,1.0,5.0,83,0.00,,,0.00,0,weatherlink.com 1.10,2016-08-27 07:13:00,
2016-08-27 03:29:00,65.2,60.0,30.08,North,360,0.0,4.0,83,0.00,,,0.00,0,weatherlink.com 1.10,2016-08-27 07:29:00,
2016-08-27 03:44:00,64.8,60.0,30.09,North,360,1.0,3.0,84,0.00,,,0.00,0,weatherlink.com 1.10,2016-08-27 07:44:00,
2016-08-27 03:59:00,64.4,60.0,30.09,North,355,1.0,5.0,85,0.00,,,0.00,0,weatherlink.com 1.10,2016-08-27 07:59:00,
2016-08-27 04:15:00,64.1,60.0,30.09,North,355,0.0,2.0,85,0.00,,,0.00,0,weatherlink.com 1.10,2016-08-27 08:15:00,
2016-08-27 04:30:00,63.6,59.0,30.09,North,355,1.0,1.0,85,0.00,,,0.00,0,weatherlink.com 1.10,2016-08-27 08:30:00,
2016-08-27 04:45:00,62.9,58.0,30.09,North,355,0.0,0.0,85,0.00,,,0.00,0,weatherlink.com 1.10,2016-08-27 08:45:00,
2016-08-27 05:01:00,62.1,58.0,30.09,North,355,0.0,0.0,86,0.00,,,0.00,0,weatherlink.com 1.10,2016-08-27 09:01:00,
2016-08-27 05:16:00,61.6,58.0,30.10,North,355,0.0,0.0,87,0.00,,,0.00,0,weatherlink.com 1.10,2016-08-27 09:16:00,
2016-08-27 05:32:00,61.1,58.0,30.11,North,355,0.0,0.0,88,0.00,,,0.00,0,weatherlink.com 1.10,2016-08-27 09:32:00,
2016-08-27 05:47:00,60.6,57.0,30.11,North,355,0.0,0.0,89,0.00,,,0.00,0,weatherlink.com 1.10,2016-08-27 09:47:00,
2016-08-27 06:02:00,60.2,57.0,30.12,North,355,0.0,0.0,89,0.00,,,0.00,0,weatherlink.com 1.10,2016-08-27 10:02:00,
2016-08-27 06:18:00,59.8,57.0,30.13,North,355,0.0,0.0,90,0.00,,,0.00,5,weatherlink.com 1.10,2016-08-27 10:18:00,
2016-08-27 06:33:00,59.5,57.0,30.14,North,355,0.0,0.0,91,0.00,,,0.00,11,weatherlink.com 1.10,2016-08-27 10:33:00,
2016-08-27 06:49:00,59.3,57.0,30.14,North,355,0.0,0.0,91,0.00,,,0.00,40,weatherlink.com 1.10,2016-08-27 10:49:00,
2016-08-27 07:05:00,59.2,57.0,30.15,North,355,0.0,0.0,91,0.00,,,0.00,79,weatherlink.com 1.10,2016-08-27 11:05:00,
2016-08-27 07:20:00,59.8,58.0,30.15,North,355,0.0,0.0,93,0.00,,,0.00,123,weatherlink.com 1.10,2016-08-27 11:20:00,
2016-08-27 07:35:00,60.9,59.0,30.15,North,355,0.0,0.0,94,0.00,,,0.00,130,weatherlink.com 1.10,2016-08-27 11:35:00,
2016-08-27 07:51:00,62.0,61.0,30.15,WSW,238,0.0,1.0,95,0.00,,,0.00,220,weatherlink.com 1.10,2016-08-27 11:51:00,
2016-08-27 08:06:00,63.3,62.0,30.15,WSW,239,0.0,0.0,96,0.00,,,0.00,269,weatherlink.com 1.10,2016-08-27 12:06:00,
2016-08-27 08:22:00,64.8,64.0,30.15,SW,228,1.0,3.0,96,0.00,,,0.00,315,weatherlink.com 1.10,2016-08-27 12:22:00,
2016-08-27 08:37:00,66.3,65.0,30.16,West,261,0.0,3.0,95,0.00,,,0.00,360,weatherlink.com 1.10,2016-08-27 12:37:00,
2016-08-27 08:53:00,68.3,67.0,30.16,West,261,0.0,1.0,94,0.00,,,0.00,378,weatherlink.com 1.10,2016-08-27 12:53:00,
2016-08-27 09:09:00,71.2,67.0,30.16,SE,128,2.0,3.0,85,0.00,,,0.00,457,weatherlink.com 1.10,2016-08-27 13:09:00,
2016-08-27 09:23:00,73.9,67.0,30.17,ESE,123,0.0,4.0,78,0.00,,,0.00,487,weatherlink.com 1.10,2016-08-27 13:23:00,
2016-08-27 09:39:00,76.3,67.0,30.17,ESE,111,0.0,4.0,74,0.00,,,0.00,534,weatherlink.com 1.10,2016-08-27 13:39:00,
2016-08-27 09:55:00,78.3,68.0,30.17,East,85,1.0,6.0,70,0.00,,,0.00,568,weatherlink.com 1.10,2016-08-27 13:55:00,
2016-08-27 10:10:00,80.1,68.0,30.17,SE,126,1.0,7.0,66,0.00,,,0.00,606,weatherlink.com 1.10,2016-08-27 14:10:00,
2016-08-27 10:26:00,81.0,69.0,30.17,East,84,1.0,3.0,66,0.00,,,0.00,638,weatherlink.com 1.10,2016-08-27 14:26:00,
2016-08-27 10:41:00,82.3,68.0,30.17,East,96,2.0,6.0,63,0.00,,,0.00,664,weatherlink.com 1.10,2016-08-27 14:41:00,
2016-08-27 10:57:00,83.2,67.0,30.17,East,92,3.0,6.0,59,0.00,,,0.00,696,weatherlink.com 1.10,2016-08-27 14:57:00,
2016-08-27 11:13:00,84.3,68.0,30.16,ESE,117,0.0,8.0,58,0.00,,,0.00,717,weatherlink.com 1.10,2016-08-27 15:13:00,
2016-08-27 11:27:00,85.1,67.0,30.16,ESE,105,2.0,7.0,54,0.00,,,0.00,740,weatherlink.com 1.10,2016-08-27 15:27:00,
2016-08-27 11:43:00,85.9,68.0,30.16,SE,128,2.0,5.0,55,0.00,,,0.00,798,weatherlink.com 1.10,2016-08-27 15:43:00,
2016-08-27 11:59:00,86.8,67.0,30.16,East,93,0.0,8.0,52,0.00,,,0.00,756,weatherlink.com 1.10,2016-08-27 15:59:00,
2016-08-27 12:13:00,86.2,67.0,30.15,SE,146,2.0,6.0,53,0.00,,,0.00,882,weatherlink.com 1.10,2016-08-27 16:13:00,
2016-08-27 12:29:00,86.1,69.0,30.15,East,92,2.0,7.0,56,0.00,,,0.00,831,weatherlink.com 1.10,2016-08-27 16:29:00,
2016-08-27 12:45:00,87.1,69.0,30.15,SSE,154,6.0,8.0,55,0.00,,,0.00,916,weatherlink.com 1.10,2016-08-27 16:45:00,
2016-08-27 13:01:00,87.5,68.0,30.15,SE,140,5.0,7.0,53,0.00,,,0.00,942,weatherlink.com 1.10,2016-08-27 17:01:00,